Find Starlink 37498

NORAD ID: 69459 Int'l Des: 2026-127 Owner: SPXS Country: US Constellation: starlink operational
LEOCIRCULAR

当前视图

正在加载3D地球...

About Starlink 37498

Starlink 37498 (NORAD 69459) is a starlink constellation satellite launched Jun 8, 2026 by SPXS of US. It operates in LEO, CIRCULAR orbit with a mass of 575.00 kg.

即将过境

Passes for default location (London). Set your location on the main map for personalized predictions.

高度历史

Loading altitude history...

两行轨道根数

1 69459U 26127S 26207.03296195 .00079232 00000-0 14192-2 0 9995
2 69459 53.1593 70.3513 0002161 77.7873 282.3378 15.49288067 7515
Epoch: Jul 26, 2026 • Age: 11 hours

当前状态

高度 436.2 km
远地点 / 近地点 N/A
速度 7.65 km/s
星下点 -47.77°S, 101.17°W
发射日期 Jun 8, 2026
运行时间 0.1 years
类型 internet

技术详情

分类 Payload
质量 575.00 kg
干质量 530.00 kg
总质量 575.00 kg
长度 0.30 m
直径 4.10 m
跨度 29.00 m
形状 Box + pan
制造商 SPXS
平台类型 Starlink V2MO
阶段状态 In Orbit
所有者/国家 SPXS/US

Most Searched